Location: Hoyos del Collado
(40.3594°N, 5.2003°W)
Time: 11:50:33
(UTC+00:00)

PSLV R/B - Pass Details

Date: 18 April 2024
Orbit: 467 x 522 km, 97.7° (Epoch: 21 May)

Event Time Altitude Azimuth Distance (km) Brightness Sun altitude
Exits shadow 20:38:50 14° 188° (S) 1,463 5.7 -17.4°
Maximum altitude 20:41:47 48° 260° (W) 675 4.5 -17.9°
Drops below altitude 10° 20:45:28 10° 336° (NNW) 1,753 7.2 -18.5°
Sets 20:47:39 0° 342° (NNW) 2,654 8.2 -18.8°
